This is the latest recevied weather packets stored in our database for station/object DL4NBA-1. If no packets are shown the sender has not sent any weather packets the latest 1 day(s).
| Time | Temp. | Humidity | Pressure | Rain* | Wind** | Luminosity | Snow |
|---|---|---|---|---|---|---|---|
| 1777985594 | 25° C | - | - | 0 mm | 0 m/s | - | - |
| 1777984997 | 22.78° C | - | - | 0 mm | 1.34 m/s, 309° | - | - |
| 1777984396 | 23.89° C | - | - | 0 mm | 1.79 m/s, 323° | - | - |
| 1777984097 | 23.89° C | - | - | 0 mm | 2.68 m/s, 316° | - | - |
| 1777983798 | 23.33° C | - | - | 0 mm | 2.68 m/s, 328° | - | - |
| 1777983499 | 26.11° C | - | - | 0 mm | 1.34 m/s, 7° | - | - |
| 1777983197 | 23.89° C | - | - | 0 mm | 1.34 m/s, 73° | - | - |
| 1777982898 | 23.33° C | - | - | 0 mm | 3.13 m/s, 297° | - | - |
| 1777982599 | 24.44° C | - | - | 0 mm | 2.68 m/s, 6° | - | - |
| 1777981698 | 23.33° C | - | - | 0 mm | 2.68 m/s, 356° | - | - |
| 1777981098 | 23.33° C | - | - | 0 mm | 1.79 m/s, 340° | - | - |
| 1777980799 | 23.33° C | - | - | 0 mm | 4.02 m/s, 274° | - | - |
| 1777980500 | 26.67° C | - | - | 0 mm | 2.24 m/s, 338° | - | - |
| 1777980197 | 26.67° C | - | - | 0 mm | 2.24 m/s, 321° | - | - |
| 1777979898 | 26.11° C | - | - | 0 mm | 1.34 m/s, 73° | - | - |
| 1777979600 | 25° C | - | - | 0 mm | 2.24 m/s, 323° | - | - |
| 1777979300 | 24.44° C | - | - | 0 mm | 1.79 m/s, 353° | - | - |
| 1777979001 | 24.44° C | - | - | 0 mm | 3.58 m/s, 322° | - | - |
| 1777978400 | 27.22° C | - | - | 0 mm | 0.89 m/s, 120° | - | - |
| 1777978102 | 27.22° C | - | - | 0 mm | 1.34 m/s, 104° | - | - |
| 1777977803 | 25° C | - | - | 0 mm | 0.89 m/s, 124° | - | - |
| 1777977499 | 22.78° C | - | - | 0 mm | 2.24 m/s, 28° | - | - |
| 1777976898 | 24.44° C | - | - | 0 mm | 2.24 m/s, 312° | - | - |
| 1777976650 | 23.89° C | - | - | 0 mm | 1.34 m/s, 283° | - | - |
| 1777976599 | 23.89° C | - | - | 0 mm | 1.34 m/s, 283° | - | - |
* Rain latest hour (hover to see other rain measurements)
** Current wind speed in m/s (hover to see current wind gust speed)